Temperature
30 32 32 32 32 32 32 32 31 31 31 31 31 31 30 30 28 28 27 25 24 23 22 22 21 21 20 20 20 19 19 18 18 18 18 17 17 17 16 16 16 16 16 15
29 31 32 32 32 32 32 32 32 32 31 32 32 31 30 29 28 27 26 25 24 23 22 21 21 20 20 20 19 19 18 18 18 18 17 17 17 16 16 16 16 15 15 15
28 30 30 30 32 32 32 33 32 31 31 32 31 31 29 29 28 27 26 25 23 22 22 21 21 20 20 19 19 18 18 18 17 17 17 16 16 16 16 15 15 15 15 15
28 28 27 30 33 33 32 32 32 32 32 31 30 30 29 28 28 27 25 24 23 22 21 21 20 20 20 19 19 18 18 17 17 17 16 16 16 16 15 15 15 15 14 14
27 27 28 30 31 32 31 31 32 32 32 31 30 29 28 28 27 26 25 23 22 22 21 21 20 20 19 18 18 18 17 17 17 16 16 16 16 15 15 15 14 14 14 14
26 26 27 29 31 32 31 29 31 32 31 30 30 29 28 27 26 25 24 23 22 21 21 20 20 19 19 18 18 17 17 17 16 16 16 16 15 15 15 15 14 14 14 14
26 26 28 30 31 31 29 28 30 30 30 29 29 28 27 26 25 24 23 22 22 21 20 20 19 19 18 18 17 17 17 16 16 16 16 16 15 15 15 14 14 14 14 13
26 26 27 30 30 29 28 29 29 29 28 28 26 26 25 24 24 23 22 21 21 20 19 19 19 18 18 17 17 17 17 16 16 16 15 15 15 15 15 14 14 14 13 13
26 26 27 27 27 27 27 28 27 27 27 26 26 25 24 23 23 22 21 21 20 19 19 18 18 18 17 17 17 17 16 16 15 15 15 15 15 14 14 14 14 13 13 13
26 26 27 26 26 26 26 26 26 26 26 26 25 24 23 22 22 21 21 20 19 19 18 18 18 17 17 17 17 16 16 16 15 15 15 14 14 14 14 14 13 13 13 13
25 25 25 25 25 25 25 25 25 25 25 25 24 23 22 21 21 20 20 20 19 19 18 17 17 17 17 17 16 16 16 15 15 15 15 14 14 14 14 14 14 13 13 13
24 24 24 24 24 24 24 24 24 24 24 23 23 22 21 20 20 19 19 19 18 18 17 17 17 17 17 16 16 16 15 15 15 14 14 14 14 14 13 13 13 13 13 13
22 22 22 23 23 23 23 23 23 23 22 22 22 21 20 20 19 19 18 18 18 18 17 17 17 16 16 16 16 16 15 15 15 14 14 14 14 14 13 13 13 13 13 12
21 21 22 22 22 22 22 22 22 22 22 21 21 20 19 19 18 18 18 18 17 17 17 17 16 16 16 16 15 15 15 15 15 14 14 14 14 14 14 13 13 12 12 12
20 21 21 20 21 21 21 21 21 21 21 20 20 19 19 18 18 18 17 17 17 17 16 16 16 16 16 15 15 15 15 15 14 14 14 14 14 13 13 13 13 12 12 12
20 20 20 20 20 20 20 20 20 20 20 19 19 18 18 18 17 17 17 17 16 16 16 16 16 16 15 15 15 15 15 14 14 14 14 14 14 14 13 13 12 12 12 12
20 20 20 20 19 20 19 19 19 19 19 18 18 18 17 17 17 16 16 16 16 16 16 16 15 15 15 15 15 14 14 14 14 14 14 14 13 13 13 13 13 12 12 11
19 19 19 19 19 19 19 18 18 18 18 18 17 17 17 16 16 16 16 15 15 15 15 15 15 15 14 14 14 14 14 14 14 14 13 13 13 13 13 13 13 12 12 11
18 18 18 18 18 18 18 17 17 17 17 17 17 16 16 16 15 15 15 15 15 14 14 14 14 14 14 14 14 14 14 14 13 13 13 13 13 13 13 13 12 12 11 11
17 17 17 17 17 17 17 16 16 16 16 16 16 16 15 15 15 14 14 14 14 14 14 14 14 14 14 14 14 14 14 13 13 13 13 13 13 12 12 12 12 12 11 11
16 16 16 16 16 16 16 16 16 15 15 15 15 15 15 14 14 14 14 14 14 14 14 14 13 13 13 13 13 13 13 13 13 13 13 12 12 12 12 12 11 11 11 11
15 15 15 15 15 15 15 15 15 15 15 15 14 14 14 14 14 14 13 13 13 13 13 13 13 13 13 13 13 13 13 13 13 12 12 12 12 12 12 11 11 11 10 10
14 14 14 14 14 14 14 14 14 14 14 14 14 14 13 13 13 13 13 13 13 13 13 13 13 13 13 13 13 13 12 12 12 12 12 12 12 11 11 11 11 10 10 10
13 13 13 13 13 13 13 13 13 13 13 13 13 13 13 13 13 13 13 13 13 12 12 12 12 12 12 12 12 12 12 12 12 12 12 11 11 11 11 11 10 10 10 10
13 13 13 13 13 13 13 13 13 13 13 13 13 13 13 13 13 12 12 12 12 12 12 12 12 12 12 12 12 12 12 12 12 12 11 11 11 11 11 10 10 10 10 10
12 12 12 12 12 12 12 13 13 13 13 13 13 13 13 12 12 12 12 12 12 12 12 12 12 12 12 12 11 11 11 11 11 11 11 11 11 11 11 10 10 10 10 10
12 12 12 12 12 12 12 12 12 12 12 12 12 12 12 12 12 11 11 11 11 12 12 11 11 11 11 11 11 11 11 11 11 11 11 10 10 10 10 10 10 10 10 10
Wind_Speed
16 14 15 18 18 18 18 14 12 9 8 8 9 9 9 10 10 10 11 11 11 12 11 11 9 7 7 7 7 7 7 7 7 6 5 5 4 4 4 4 4 4 4 4
16 17 16 15 18 18 18 15 14 11 7 9 9 9 7 8 10 10 11 11 10 10 12 11 10 9 8 8 8 7 7 7 7 6 6 5 5 4 5 5 5 5 5 6
15 17 16 17 15 17 16 15 13 10 6 6 8 9 9 9 9 10 11 12 12 10 10 9 9 8 8 9 8 7 7 7 7 6 6 5 5 6 5 5 5 6 6 7
13 14 17 13 12 12 13 12 11 8 6 5 6 8 7 6 8 9 10 11 10 10 10 10 10 9 8 9 9 8 7 7 7 6 6 5 6 6 6 5 5 5 6 6
12 15 15 12 12 12 11 10 10 10 7 7 7 8 7 6 7 9 10 10 9 9 10 10 11 10 10 8 8 8 8 7 6 6 6 6 6 6 6 5 6 5 5 5
12 14 14 12 12 11 10 10 8 6 5 5 6 7 6 7 8 10 11 10 9 9 9 9 10 11 11 9 8 7 7 7 6 6 6 6 6 6 6 5 6 6 6 6
15 13 10 7 9 11 12 6 4 5 4 5 3 3 6 9 9 10 11 12 11 10 9 8 9 9 9 9 8 8 8 8 7 6 7 7 6 5 5 5 6 6 6 6
14 14 9 3 7 7 3 3 3 4 5 6 8 9 10 10 9 10 11 12 12 11 10 9 9 9 8 8 8 9 8 8 8 7 7 7 6 5 5 5 5 5 5 5
8 7 1 4 5 6 6 6 5 5 6 8 8 9 10 10 9 8 10 11 11 11 11 9 9 8 9 8 9 9 9 7 7 7 6 6 6 5 4 3 4 4 4 4
6 6 5 5 6 7 6 6 5 5 6 7 8 9 10 9 9 8 8 9 10 11 11 9 9 9 9 9 9 9 9 7 7 7 6 5 4 4 3 2 2 3 3 3
5 5 4 5 6 7 7 5 5 6 5 5 7 9 9 8 8 7 7 7 8 9 10 10 10 9 9 9 9 9 8 7 7 7 7 5 5 4 3 3 1 1 2 3
5 4 3 5 5 5 5 5 6 5 5 5 7 9 8 7 7 7 7 7 7 9 9 10 9 9 8 8 9 8 8 7 6 6 6 6 6 6 10 7 8 9 8 6
3 4 5 6 6 5 5 5 5 5 5 5 6 7 7 7 7 7 7 7 8 8 9 9 9 8 8 7 7 7 7 7 6 6 6 6 7 7 6 5 8 9 8 9
2 4 6 5 4 4 5 5 4 4 4 5 6 7 7 7 7 6 6 7 8 8 8 9 9 8 7 7 6 6 6 6 6 6 5 5 6 6 6 7 6 4 4 5
2 4 5 3 3 4 4 4 3 3 4 5 6 7 7 6 6 5 5 7 7 8 7 8 8 7 7 7 7 7 6 5 5 5 5 5 5 6 6 6 6 6 6 4
3 3 4 3 3 3 3 3 3 3 3 4 5 6 6 6 6 5 5 6 6 6 7 7 7 7 7 6 6 5 4 5 5 5 5 5 5 5 6 5 5 6 6 5
3 3 3 3 2 2 2 2 2 2 3 3 4 5 5 5 5 5 4 5 5 5 6 6 6 6 6 6 6 5 5 5 5 4 4 4 4 4 4 5 5 5 5 6
3 3 3 3 2 2 1 1 1 2 2 3 3 4 5 5 5 5 5 5 5 5 4 5 5 5 5 5 4 4 5 5 5 4 3 3 2 3 3 4 5 6 5 6
3 3 2 2 1 1 1 1 1 1 2 3 3 3 3 4 3 4 4 4 4 4 4 4 5 5 5 5 4 4 5 5 5 4 3 3 3 3 3 4 4 4 5 5
3 2 2 2 2 2 2 1 1 1 1 2 2 3 3 3 3 3 3 3 3 3 5 5 5 5 5 4 4 4 5 5 5 5 4 3 3 3 3 3 4 4 4 4
2 2 2 2 2 1 1 1 1 2 2 2 3 3 4 3 4 4 3 3 3 2 4 6 5 4 4 3 4 4 4 4 5 5 4 4 3 3 3 3 3 3 3 3
2 3 3 2 2 2 1 1 2 2 2 2 3 4 4 4 4 4 3 3 3 4 4 4 4 4 3 4 4 4 4 4 4 3 3 3 3 3 3 4 3 3 3 3
1 1 2 2 2 1 2 1 1 2 3 3 3 4 4 3 3 4 3 3 4 4 3 3 4 5 3 3 3 3 4 3 4 4 4 3 3 3 3 4 3 3 3 3
2 2 2 2 2 1 2 2 1 2 2 2 3 4 4 4 3 3 4 5 5 5 3 5 6 6 3 3 2 3 3 3 4 4 4 5 4 4 4 3 3 3 4 4
2 2 3 3 2 2 3 3 3 2 2 2 3 4 3 3 4 4 4 5 7 5 4 5 6 5 3 3 3 3 3 3 3 3 3 3 3 4 4 4 4 4 3 3
3 2 2 2 2 2 2 2 2 2 2 2 3 3 3 4 5 5 5 6 6 5 4 5 5 5 3 3 3 3 3 3 3 3 3 3 3 3 3 3 3 3 3 3
3 3 2 2 2 2 2 2 2 2 2 3 3 3 3 4 4 4 5 5 5 5 4 4 4 4 4 4 4 4 3 3 3 3 3 3 2 3 3 3 2 2 2 2
Wind_Direction
254 248 226 211 219 224 231 237 235 226 202 175 165 164 157 148 146 148 149 145 144 145 142 140 142 146 140 132 127 126 129 126 123 121 119 111 106 101 94 87 82 70 70 67
248 251 247 228 216 221 226 231 237 236 208 172 160 142 142 147 153 158 157 150 148 147 144 147 150 151 141 134 128 128 129 127 123 121 117 111 108 101 91 84 79 72 65 60
241 241 244 239 228 220 222 227 234 232 213 171 154 148 155 164 168 163 161 154 153 150 144 146 147 144 142 135 133 133 129 125 123 120 115 113 109 97 90 85 83 78 74 72
244 237 235 238 237 228 221 223 226 223 205 180 158 140 137 157 163 159 155 148 144 148 147 149 147 145 140 140 140 136 131 127 122 118 113 107 102 96 89 87 86 83 82 79
238 234 230 233 229 227 228 229 227 221 198 185 172 153 150 160 150 146 144 138 144 150 149 146 148 145 137 138 137 134 132 131 128 124 122 115 109 103 99 96 93 89 85 83
236 237 231 221 220 217 221 226 226 213 192 183 179 194 167 139 138 138 134 136 140 142 136 138 141 140 142 146 140 134 131 130 128 126 126 119 115 113 111 107 104 99 92 86
237 238 239 237 208 202 212 206 192 194 163 165 160 109 114 123 122 126 132 137 137 135 137 141 136 137 141 140 139 133 130 129 127 123 123 121 119 118 120 114 108 107 103 94
231 237 231 224 203 202 153 100 119 131 123 113 108 110 113 115 121 127 131 135 136 137 138 138 137 140 137 132 131 130 128 128 126 129 132 125 123 121 118 121 124 123 122 114
218 223 79 55 84 93 99 96 93 108 116 122 126 124 122 120 122 127 135 138 139 141 139 140 140 141 141 136 135 135 133 134 130 125 120 126 132 132 137 151 153 147 145 134
195 181 158 118 103 98 98 98 95 97 112 123 126 123 119 122 127 132 135 138 143 144 143 143 143 140 139 138 139 140 140 137 136 134 129 120 122 125 125 131 150 150 142 133
187 158 143 129 116 108 98 94 104 101 95 105 114 115 117 123 128 132 135 137 141 141 143 144 141 139 143 144 145 146 146 146 145 141 133 117 96 68 83 68 79 112 110 114
180 149 161 131 106 101 107 105 98 98 95 97 107 116 122 122 123 129 133 135 136 137 140 141 141 142 145 148 152 152 155 155 156 153 148 144 130 101 58 69 77 77 80 91
97 131 127 119 114 112 107 94 91 95 103 104 112 123 126 122 124 129 136 143 141 141 142 143 143 145 151 155 155 159 163 163 160 160 163 161 154 147 136 91 69 70 83 95
75 116 109 104 110 105 101 96 90 95 108 117 116 118 119 121 125 130 137 139 137 139 141 144 146 148 154 157 159 164 164 159 163 166 169 169 166 165 161 156 151 135 109 117
124 116 122 126 128 119 109 112 110 106 113 119 121 123 128 130 128 132 133 133 134 138 142 143 144 148 155 163 168 172 170 168 171 169 172 172 171 167 164 165 160 153 149 152
134 124 134 137 138 137 135 128 120 112 109 110 121 128 132 131 130 128 131 136 141 145 145 143 146 152 158 165 169 173 171 165 169 177 178 174 176 172 167 167 166 162 163 161
178 171 168 164 173 169 139 123 119 121 124 118 110 117 124 128 127 127 130 130 130 133 138 142 147 153 160 166 170 173 168 164 175 188 182 174 178 183 174 171 171 164 156 154
200 200 191 186 196 188 161 132 122 129 130 125 116 120 124 128 131 129 129 128 129 132 137 143 147 154 163 166 170 176 174 172 177 179 175 171 176 173 169 168 160 151 146 150
203 203 195 202 194 171 151 114 106 107 112 126 126 128 132 132 131 135 139 143 148 153 152 147 150 163 166 166 174 178 175 171 168 165 164 159 177 164 157 153 146 145 147 153
177 175 181 197 179 169 165 149 148 130 144 144 137 137 143 144 145 150 150 153 153 153 151 150 164 170 167 161 182 187 176 170 166 168 172 176 178 168 160 154 148 152 158 157
177 177 174 171 162 153 151 152 160 162 159 155 150 149 145 145 147 154 159 149 120 124 151 160 168 160 162 166 203 197 177 173 172 174 172 170 164 159 155 151 152 152 151 148
179 179 169 162 161 166 156 167 169 173 170 163 160 147 144 152 152 144 131 136 141 128 152 164 154 147 155 175 195 186 177 175 167 155 145 146 153 159 161 159 160 164 159 150
155 164 175 171 169 147 136 143 156 174 179 178 173 163 167 167 163 160 157 142 144 144 151 134 124 120 140 187 184 168 159 153 152 151 149 150 164 170 168 169 172 173 165 166
155 161 160 155 147 149 150 156 159 150 167 183 172 164 167 163 154 145 130 130 128 138 136 125 125 129 164 192 174 158 154 157 161 163 165 170 172 167 159 162 175 181 178 179
145 151 157 160 164 170 168 162 159 168 180 175 162 162 171 162 149 139 134 131 135 140 136 143 148 157 187 184 167 168 168 168 170 171 169 170 165 164 169 179 188 190 188 184
163 175 160 161 161 170 174 168 171 171 172 149 131 117 107 104 116 123 131 142 147 153 153 154 164 181 190 173 156 154 153 158 157 156 157 162 162 163 164 170 176 181 180 173
168 166 159 167 162 163 157 159 161 170 160 149 138 129 119 119 129 138 144 148 157 166 164 167 173 176 171 167 154 153 158 158 152 156 168 177 171 167 166 174 178 163 160 152
Height
1473 1467 1467 1473 1476 1476 1480 1482 1490 1491 1490 1488 1486 1489 1493 1498 1502 1506 1510 1514 1518 1521 1525 1528 1531 1534 1537 1539 1540 1541 1542 1543 1544 1545 1546 1546 1546 1547 1547 1547 1547 1546 1546 1546
1479 1469 1466 1468 1469 1472 1475 1477 1480 1482 1484 1481 1485 1489 1494 1498 1502 1506 1510 1514 1518 1521 1523 1527 1529 1533 1535 1538 1539 1541 1542 1543 1544 1544 1545 1546 1546 1546 1547 1547 1547 1547 1546 1546
1485 1474 1473 1478 1468 1469 1472 1471 1476 1483 1483 1481 1485 1489 1495 1499 1502 1506 1509 1512 1516 1520 1522 1526 1529 1532 1534 1536 1538 1540 1541 1542 1543 1544 1545 1545 1546 1546 1547 1547 1547 1547 1546 1546
1485 1484 1497 1474 1460 1462 1467 1470 1471 1475 1477 1481 1486 1490 1494 1498 1502 1505 1509 1511 1515 1519 1522 1525 1528 1531 1534 1536 1537 1539 1541 1542 1543 1543 1544 1545 1546 1546 1547 1547 1547 1547 1547 1547
1486 1488 1484 1470 1462 1464 1470 1473 1470 1473 1477 1481 1485 1489 1495 1499 1501 1505 1508 1511 1515 1518 1521 1524 1526 1530 1532 1535 1537 1538 1540 1541 1542 1543 1544 1545 1545 1546 1547 1547 1547 1547 1547 1547
1485 1490 1490 1473 1461 1462 1468 1478 1472 1474 1477 1481 1485 1491 1495 1498 1501 1505 1508 1511 1514 1518 1520 1523 1526 1528 1531 1534 1536 1538 1539 1540 1541 1542 1544 1544 1545 1546 1547 1547 1548 1548 1548 1548
1484 1485 1476 1462 1459 1462 1480 1481 1474 1476 1479 1483 1486 1490 1495 1497 1501 1505 1508 1512 1515 1517 1520 1522 1525 1527 1531 1534 1535 1537 1538 1540 1541 1542 1544 1544 1545 1546 1547 1548 1549 1549 1549 1549
1482 1485 1481 1462 1461 1467 1473 1472 1475 1477 1481 1485 1489 1492 1496 1499 1503 1506 1508 1512 1514 1517 1519 1522 1525 1527 1530 1532 1534 1536 1538 1540 1541 1542 1543 1544 1546 1547 1548 1549 1549 1550 1551 1551
1473 1475 1468 1466 1467 1470 1472 1475 1477 1479 1482 1486 1489 1493 1497 1500 1504 1507 1510 1512 1515 1517 1520 1522 1525 1527 1530 1532 1534 1536 1537 1539 1540 1542 1543 1544 1546 1547 1548 1549 1550 1551 1551 1551
1468 1468 1468 1470 1471 1472 1475 1477 1480 1482 1485 1487 1491 1495 1498 1501 1505 1508 1511 1513 1515 1517 1519 1522 1525 1527 1530 1532 1533 1535 1537 1539 1540 1541 1543 1544 1546 1547 1548 1549 1550 1551 1551 1552
1467 1469 1470 1472 1474 1476 1478 1480 1482 1484 1487 1489 1492 1495 1499 1502 1505 1508 1511 1513 1515 1517 1519 1522 1524 1527 1529 1531 1532 1534 1536 1538 1540 1541 1543 1544 1545 1546 1548 1549 1550 1551 1551 1551
1468 1470 1472 1475 1476 1478 1480 1482 1484 1487 1489 1492 1494 1497 1500 1503 1506 1508 1510 1512 1515 1517 1519 1521 1523 1526 1528 1530 1532 1533 1535 1537 1539 1541 1542 1543 1544 1546 1547 1548 1549 1550 1551 1551
1470 1472 1474 1476 1478 1480 1482 1484 1486 1489 1491 1494 1496 1499 1501 1503 1505 1507 1510 1512 1514 1516 1518 1521 1523 1525 1527 1529 1531 1532 1534 1536 1538 1540 1541 1542 1543 1544 1545 1547 1548 1549 1550 1551
1472 1473 1475 1479 1481 1483 1485 1487 1489 1491 1493 1495 1497 1499 1501 1503 1505 1508 1510 1512 1514 1516 1518 1520 1522 1524 1526 1528 1530 1532 1533 1535 1536 1538 1540 1541 1542 1543 1544 1545 1546 1548 1549 1550
1473 1475 1478 1481 1483 1485 1487 1489 1491 1492 1494 1496 1498 1500 1502 1503 1505 1508 1510 1512 1514 1515 1517 1519 1521 1522 1524 1527 1529 1530 1532 1534 1535 1537 1539 1540 1541 1542 1543 1544 1545 1546 1547 1548
1476 1478 1480 1482 1484 1486 1488 1489 1491 1493 1495 1496 1498 1500 1502 1503 1505 1507 1510 1511 1513 1515 1516 1518 1519 1521 1523 1525 1527 1529 1531 1532 1534 1535 1537 1538 1540 1541 1542 1543 1544 1544 1545 1546
1477 1479 1481 1483 1485 1487 1489 1490 1492 1494 1495 1497 1498 1500 1501 1503 1505 1507 1509 1511 1512 1514 1515 1517 1518 1520 1522 1524 1525 1527 1529 1530 1532 1534 1535 1537 1538 1539 1540 1541 1542 1543 1544 1545
1478 1480 1482 1484 1485 1488 1490 1491 1492 1494 1496 1497 1498 1499 1501 1502 1504 1506 1508 1509 1511 1513 1514 1515 1517 1518 1520 1522 1524 1525 1527 1528 1530 1531 1533 1535 1536 1537 1538 1540 1541 1541 1542 1544
1479 1480 1481 1483 1486 1488 1489 1491 1493 1494 1495 1497 1498 1499 1501 1502 1503 1505 1507 1508 1509 1511 1512 1513 1515 1517 1518 1520 1522 1523 1525 1526 1528 1529 1531 1532 1534 1536 1537 1538 1539 1540 1541 1542
1478 1480 1482 1484 1486 1488 1489 1491 1492 1493 1495 1496 1497 1499 1500 1502 1503 1504 1506 1507 1507 1508 1510 1511 1513 1515 1516 1518 1520 1522 1523 1525 1526 1528 1529 1531 1532 1534 1535 1536 1537 1538 1539 1541
1479 1481 1482 1484 1486 1487 1489 1490 1491 1492 1493 1495 1497 1498 1499 1501 1502 1503 1504 1505 1506 1507 1508 1509 1511 1512 1514 1516 1518 1520 1522 1523 1525 1526 1528 1529 1531 1532 1533 1534 1536 1537 1538 1539
1479 1481 1482 1484 1485 1487 1488 1489 1490 1491 1492 1494 1496 1497 1498 1500 1501 1502 1503 1504 1504 1505 1506 1508 1509 1511 1513 1515 1516 1518 1520 1521 1523 1525 1526 1527 1529 1530 1532 1533 1534 1535 1536 1537
1478 1480 1482 1483 1484 1486 1487 1488 1489 1489 1491 1493 1494 1495 1497 1498 1499 1500 1501 1502 1503 1504 1506 1507 1508 1510 1512 1514 1515 1517 1518 1520 1522 1523 1524 1526 1527 1529 1530 1531 1532 1533 1534 1535
1478 1479 1480 1482 1484 1485 1486 1487 1488 1488 1490 1491 1493 1494 1495 1497 1498 1499 1500 1501 1502 1504 1505 1506 1507 1509 1511 1513 1514 1515 1517 1519 1520 1522 1523 1525 1526 1527 1528 1530 1531 1532 1533 1534
1477 1478 1480 1481 1483 1484 1485 1486 1487 1488 1489 1491 1492 1493 1494 1496 1497 1498 1499 1500 1501 1503 1505 1506 1507 1508 1510 1511 1513 1514 1516 1518 1519 1521 1522 1523 1525 1526 1527 1528 1529 1531 1532 1532
1476 1477 1479 1480 1481 1483 1484 1485 1486 1487 1489 1490 1491 1492 1493 1495 1496 1497 1498 1499 1501 1503 1504 1505 1507 1508 1510 1511 1512 1514 1515 1517 1518 1520 1521 1522 1524 1525 1526 1527 1528 1529 1530 1531
1475 1476 1477 1479 1480 1481 1482 1484 1485 1486 1488 1489 1490 1491 1492 1494 1495 1496 1497 1499 1501 1502 1504 1505 1507 1508 1509 1510 1512 1513 1514 1516 1517 1519 1520 1521 1523 1524 1525 1526 1527 1528 1529 1530